• In Kazakhstan
  • List of Countries
  • For 7 days
  • Water Temperature
  • Satellite Maps
  • Weather Map
  • News
  • Weather Widgets
  • user-avatar
    Login

    Hourly Weather Neuquén

    Today, 20 January, Sunday

    Time Temperature Precipitation Wind Pressure Humidity
    00:00 +30°C° 0 mm 7 mps 729 mmHg 28%
    01:00 +28°C° 0 mm 12 mps 729 mmHg 34%
    02:00 +27°C° 0 mm 9 mps 729 mmHg 36%
    03:00 +27°C° 0 mm 7 mps 729 mmHg 38%
    04:00 +26°C° 0 mm 5 mps 729 mmHg 40%
    05:00 +27°C° 0 mm 4 mps 729 mmHg 38%
    06:00 +28°C° 0 mm 4 mps 729 mmHg 35%
    07:00 +29°C° 0 mm 3 mps 729 mmHg 33%
    08:00 +31°C° 0 mm 3 mps 729 mmHg 28%
    09:00 +33°C° 0 mm 3 mps 729 mmHg 23%
    10:00 +35°C° 0 mm 4 mps 729 mmHg 18%
    11:00 +36°C° 0 mm 5 mps 728 mmHg 16%
    12:00 +39°C° 0 mm 6 mps 728 mmHg 14%
    13:00 +40°C° 0 mm 7 mps 727 mmHg 11%
    14:00 +40°C° 0 mm 8 mps 727 mmHg 10%
    15:00 +42°C° 0 mm 9 mps 727 mmHg 8%
    16:00 +43°C° 0 mm 10 mps 727 mmHg 6%
    17:00 +39°C° 0 mm 11 mps 727 mmHg 8%
    18:00 +37°C° 0 mm 12 mps 727 mmHg 10%
    19:00 +34°C° 0 mm 12 mps 728 mmHg 12%
    20:00 +32°C° 0 mm 12 mps 729 mmHg 16%
    21:00 +29°C° 0 mm 11 mps 730 mmHg 21%
    22:00 +28°C° 0 mm 11 mps 730 mmHg 25%
    23:00 +26°C° 0 mm 11 mps 730 mmHg 27%

    Tomorrow, 21 January, Monday

    Time Temperature Precipitation Wind Pressure Humidity
    00:00 +24°C° 0 mm 10 mps 730 mmHg 28%
    01:00 +23°C° 0 mm 10 mps 731 mmHg 30%
    02:00 +23°C° 0 mm 9 mps 731 mmHg 31%
    03:00 +22°C° 0 mm 9 mps 731 mmHg 32%
    04:00 +21°C° 0 mm 8 mps 731 mmHg 34%
    05:00 +22°C° 0 mm 9 mps 732 mmHg 32%
    06:00 +23°C° 0 mm 9 mps 732 mmHg 30%
    07:00 +23°C° 0 mm 9 mps 732 mmHg 28%
    08:00 +26°C° 0 mm 8 mps 732 mmHg 23%
    09:00 +28°C° 0 mm 7 mps 732 mmHg 19%
    10:00 +30°C° 0 mm 6 mps 732 mmHg 15%
    11:00 +32°C° 0 mm 6 mps 731 mmHg 14%
    12:00 +33°C° 0 mm 6 mps 730 mmHg 12%
    13:00 +35°C° 0 mm 6 mps 730 mmHg 11%
    14:00 +36°C° 0 mm 6 mps 729 mmHg 10%
    15:00 +38°C° 0 mm 6 mps 728 mmHg 9%
    16:00 +39°C° 0 mm 6 mps 728 mmHg 8%
    17:00 +38°C° 0 mm 7 mps 728 mmHg 7%
    18:00 +37°C° 0 mm 8 mps 728 mmHg 7%
    19:00 +35°C° 0 mm 9 mps 728 mmHg 6%
    20:00 +33°C° 0 mm 9 mps 728 mmHg 10%
    21:00 +31°C° 0 mm 9 mps 729 mmHg 13%
    22:00 +28°C° 0 mm 9 mps 729 mmHg 16%
    23:00 +27°C° 0 mm 9 mps 729 mmHg 18%

    Day after tomorrow, 22 January, Tuesday

    Time Temperature Precipitation Wind Pressure Humidity
    00:00 +26°C° 0 mm 9 mps 729 mmHg 21%
    01:00 +23°C° 0 mm 9 mps 729 mmHg 23%
    02:00 +23°C° 0 mm 9 mps 729 mmHg 24%
    03:00 +22°C° 0 mm 9 mps 730 mmHg 24%
    04:00 +21°C° 0 mm 10 mps 730 mmHg 24%
    05:00 +22°C° 0 mm 10 mps 730 mmHg 22%
    06:00 +23°C° 0 mm 11 mps 731 mmHg 20%
    07:00 +23°C° 0 mm 11 mps 731 mmHg 18%
    08:00 +26°C° 0 mm 11 mps 731 mmHg 19%
    09:00 +27°C° 0 mm 11 mps 731 mmHg 19%
    10:00 +28°C° 0 mm 10 mps 732 mmHg 19%
    11:00 +29°C° 0 mm 10 mps 731 mmHg 18%
    12:00 +31°C° 0 mm 10 mps 731 mmHg 16%
    13:00 +32°C° 0 mm 10 mps 731 mmHg 15%
    14:00 +33°C° 0 mm 10 mps 730 mmHg 14%
    15:00 +33°C° 0 mm 9 mps 730 mmHg 14%
    16:00 +34°C° 0 mm 9 mps 730 mmHg 13%
    17:00 +33°C° 0 mm 8 mps 730 mmHg 13%
    18:00 +32°C° 0 mm 7 mps 730 mmHg 13%
    19:00 +30°C° 0 mm 6 mps 731 mmHg 13%
    20:00 +29°C° 0 mm 6 mps 731 mmHg 14%
    21:00 +28°C° 0 mm 5 mps 732 mmHg 14%
    22:00 +27°C° 0 mm 5 mps 733 mmHg 14%
    23:00 +26°C° 0 mm 5 mps 733 mmHg 16%

    23 January, Wednesday

    Time Temperature Precipitation Wind Pressure Humidity
    00:00 +24°C° 0 mm 6 mps 733 mmHg 17%
    01:00 +23°C° 0 mm 6 mps 733 mmHg 19%
    02:00 +22°C° 0 mm 5 mps 733 mmHg 20%
    03:00 +22°C° 0 mm 5 mps 733 mmHg 22%
    04:00 +21°C° 0 mm 4 mps 733 mmHg 24%
    05:00 +22°C° 0 mm 4 mps 734 mmHg 25%
    06:00 +23°C° 0 mm 4 mps 734 mmHg 26%
    07:00 +25°C° 0 mm 4 mps 735 mmHg 28%
    08:00 +26°C° 0 mm 3 mps 735 mmHg 24%
    09:00 +28°C° 0 mm 3 mps 734 mmHg 21%
    10:00 +29°C° 0 mm 2 mps 734 mmHg 17%
    11:00 +31°C° 0 mm 2 mps 734 mmHg 15%
    12:00 +32°C° 0 mm 2 mps 733 mmHg 13%
    13:00 +35°C° 0 mm 2 mps 732 mmHg 11%
    14:00 +36°C° 0 mm 3 mps 732 mmHg 10%
    15:00 +36°C° 0 mm 3 mps 731 mmHg 9%
    16:00 +37°C° 0 mm 4 mps 730 mmHg 9%
    17:00 +37°C° 0 mm 3 mps 730 mmHg 9%
    18:00 +36°C° 0 mm 3 mps 729 mmHg 10%
    19:00 +35°C° 0 mm 3 mps 729 mmHg 11%
    20:00 +35°C° 0 mm 3 mps 729 mmHg 14%
    21:00 +34°C° 0 mm 4 mps 729 mmHg 17%
    22:00 +34°C° 0 mm 4 mps 729 mmHg 20%
    23:00 +33°C° 0 mm 4 mps 729 mmHg 25%

    24 January, Thursday

    Time Temperature Precipitation Wind Pressure Humidity
    00:00 +32°C° 0 mm 4 mps 728 mmHg 29%
    01:00 +32°C° 0 mm 4 mps 728 mmHg 34%
    02:00 +32°C° 0 mm 4 mps 728 mmHg 39%
    03:00 +30°C° 0 mm 3 mps 727 mmHg 45%
    04:00 +30°C° 0 mm 3 mps 727 mmHg 50%
    05:00 +31°C° 0 mm 3 mps 727 mmHg 47%
    06:00 +31°C° 0 mm 3 mps 728 mmHg 44%
    07:00 +33°C° 0 mm 4 mps 728 mmHg 42%
    08:00 +34°C° 0 mm 4 mps 728 mmHg 36%
    09:00 +36°C° 0 mm 4 mps 727 mmHg 30%
    10:00 +37°C° 0 mm 4 mps 727 mmHg 24%
    11:00 +38°C° 0 mm 4 mps 727 mmHg 18%
    12:00 +39°C° 0 mm 5 mps 726 mmHg 12%
    13:00 +40°C° 0 mm 6 mps 726 mmHg 7%
    14:00 +41°C° 0 mm 7 mps 725 mmHg 6%
    15:00 +43°C° 0 mm 8 mps 725 mmHg 5%
    16:00 +43°C° 0 mm 8 mps 725 mmHg 5%
    17:00 +40°C° 0 mm 9 mps 725 mmHg 5%
    18:00 +38°C° 0 mm 10 mps 726 mmHg 6%
    19:00 +36°C° 0 mm 11 mps 726 mmHg 7%
    20:00 +33°C° 0 mm 12 mps 726 mmHg 9%
    21:00 +31°C° 0 mm 12 mps 727 mmHg 11%
    22:00 +28°C° 0 mm 13 mps 727 mmHg 14%
    23:00 +27°C° 0 mm 13 mps 728 mmHg 16%

    25 January, Friday

    Time Temperature Precipitation Wind Pressure Humidity
    00:00 +26°C° 0 mm 14 mps 728 mmHg 18%
    01:00 +24°C° 0 mm 14 mps 728 mmHg 20%
    02:00 +23°C° 0 mm 14 mps 729 mmHg 25%
    03:00 +22°C° 0 mm 14 mps 729 mmHg 31%
    04:00 +22°C° 0 mm 14 mps 730 mmHg 36%
    05:00 +22°C° 0 mm 13 mps 730 mmHg 34%
    06:00 +22°C° 0 mm 12 mps 731 mmHg 33%
    07:00 +23°C° 0 mm 11 mps 732 mmHg 31%
    08:00 +24°C° 0 mm 10 mps 732 mmHg 25%
    09:00 +26°C° 0 mm 10 mps 732 mmHg 19%
    10:00 +28°C° 0 mm 10 mps 733 mmHg 13%
    11:00 +29°C° 0 mm 9 mps 733 mmHg 11%
    12:00 +32°C° 0 mm 9 mps 732 mmHg 9%
    13:00 +33°C° 0 mm 8 mps 732 mmHg 7%
    14:00 +33°C° 0 mm 8 mps 732 mmHg 7%
    15:00 +34°C° 0 mm 7 mps 732 mmHg 6%
    16:00 +34°C° 0 mm 7 mps 732 mmHg 6%
    17:00 +33°C° 0 mm 6 mps 732 mmHg 6%
    18:00 +32°C° 0 mm 5 mps 732 mmHg 7%
    19:00 +30°C° 0 mm 4 mps 732 mmHg 8%
    20:00 +29°C° 0 mm 4 mps 733 mmHg 9%
    21:00 +28°C° 0 mm 5 mps 733 mmHg 10%
    22:00 +27°C° 0 mm 5 mps 734 mmHg 11%
    23:00 +26°C° 0 mm 6 mps 734 mmHg 12%
    Show more